Time,TemperatureF,DewpointF,PressureIn,WindDirection,WindDirectionDegrees,WindSpeedMPH,WindSpeedGustMPH,Humidity,HourlyPrecipIn,Conditions,Clouds,dailyrainin,SoftwareType,DateUTC
2013-08-08 00:00:00,52.0,51.2,30.01,WSW,251,0.0,0.0,97,0.00,,,0.00,Wunderground v.1.15,2013-08-08 05:00:00,
2013-08-08 00:06:00,51.8,51.0,30.01,WSW,251,0.0,0.0,97,0.00,,,0.00,Wunderground v.1.15,2013-08-08 05:06:00,
2013-08-08 00:12:00,51.9,51.1,30.01,WSW,251,0.0,0.0,97,0.00,,,0.00,Wunderground v.1.15,2013-08-08 05:12:00,
2013-08-08 00:18:00,51.8,51.0,30.01,WSW,251,0.0,0.0,97,0.00,,,0.00,Wunderground v.1.15,2013-08-08 05:18:00,
2013-08-08 00:24:00,51.7,50.9,30.01,WSW,251,0.0,0.0,97,0.00,,,0.00,Wunderground v.1.15,2013-08-08 05:24:00,
2013-08-08 00:30:00,51.6,50.8,30.01,WSW,251,0.0,0.0,97,0.00,,,0.00,Wunderground v.1.15,2013-08-08 05:30:00,
2013-08-08 00:36:00,51.5,50.7,30.01,WSW,251,0.0,0.0,97,0.00,,,0.00,Wunderground v.1.15,2013-08-08 05:36:00,
2013-08-08 00:42:00,51.4,50.6,30.01,WSW,251,0.0,0.0,97,0.00,,,0.00,Wunderground v.1.15,2013-08-08 05:42:00,
2013-08-08 00:48:00,51.3,50.5,30.01,WSW,251,0.0,0.0,97,0.00,,,0.00,Wunderground v.1.15,2013-08-08 05:48:00,
2013-08-08 00:53:00,51.2,50.4,30.02,WSW,251,0.0,0.0,97,0.00,,,0.00,Wunderground v.1.15,2013-08-08 05:53:00,
2013-08-08 00:59:00,51.1,50.3,30.02,WSW,251,0.0,0.0,97,0.00,,,0.00,Wunderground v.1.15,2013-08-08 05:59:00,
2013-08-08 01:05:00,51.0,50.2,30.02,WSW,251,0.0,0.0,97,0.00,,,0.00,Wunderground v.1.15,2013-08-08 06:05:00,
2013-08-08 01:10:00,51.0,50.2,30.02,WSW,251,0.0,0.0,97,0.00,,,0.00,Wunderground v.1.15,2013-08-08 06:10:00,
2013-08-08 01:16:00,51.2,50.7,30.02,WSW,251,0.0,0.0,98,0.00,,,0.00,Wunderground v.1.15,2013-08-08 06:16:00,
2013-08-08 01:22:00,51.5,51.0,30.02,WSW,251,0.0,0.0,98,0.00,,,0.00,Wunderground v.1.15,2013-08-08 06:22:00,
2013-08-08 01:28:00,51.8,51.3,30.03,WSW,251,0.0,0.0,98,0.00,,,0.00,Wunderground v.1.15,2013-08-08 06:28:00,
2013-08-08 01:34:00,51.9,51.4,30.03,WSW,251,0.0,0.0,98,0.00,,,0.00,Wunderground v.1.15,2013-08-08 06:34:00,
2013-08-08 01:40:00,51.9,51.4,30.02,WSW,251,0.0,0.0,98,0.00,,,0.00,Wunderground v.1.15,2013-08-08 06:40:00,
2013-08-08 01:45:00,51.9,51.4,30.02,WSW,251,0.0,0.0,98,0.00,,,0.00,Wunderground v.1.15,2013-08-08 06:45:00,
2013-08-08 01:51:00,51.8,51.3,30.03,WSW,251,0.0,0.0,98,0.00,,,0.00,Wunderground v.1.15,2013-08-08 06:51:00,
2013-08-08 01:57:00,51.7,51.2,30.02,WSW,251,0.0,0.0,98,0.00,,,0.00,Wunderground v.1.15,2013-08-08 06:57:00,
2013-08-08 02:03:00,51.7,51.2,30.02,WSW,251,0.0,0.0,98,0.00,,,0.00,Wunderground v.1.15,2013-08-08 07:03:00,
2013-08-08 02:09:00,51.8,51.3,30.02,WSW,251,0.0,0.0,98,0.00,,,0.00,Wunderground v.1.15,2013-08-08 07:09:00,
2013-08-08 02:15:00,51.7,51.2,30.02,WSW,251,0.0,0.0,98,0.00,,,0.00,Wunderground v.1.15,2013-08-08 07:15:00,
2013-08-08 02:21:00,51.7,51.2,30.02,WSW,251,0.0,0.0,98,0.00,,,0.00,Wunderground v.1.15,2013-08-08 07:21:00,
2013-08-08 02:27:00,51.7,51.2,30.02,WSW,251,0.0,0.0,98,0.00,,,0.00,Wunderground v.1.15,2013-08-08 07:27:00,
2013-08-08 02:33:00,51.8,51.3,30.02,WSW,251,0.0,0.0,98,0.00,,,0.00,Wunderground v.1.15,2013-08-08 07:33:00,
2013-08-08 02:39:00,51.8,51.3,30.01,WSW,251,0.0,0.0,98,0.00,,,0.00,Wunderground v.1.15,2013-08-08 07:39:00,
2013-08-08 02:45:00,51.9,51.4,30.01,WSW,251,0.0,0.0,98,0.00,,,0.00,Wunderground v.1.15,2013-08-08 07:45:00,
2013-08-08 02:51:00,52.0,51.5,30.01,WSW,251,0.0,0.0,98,0.00,,,0.00,Wunderground v.1.15,2013-08-08 07:51:00,
2013-08-08 02:56:00,52.1,51.6,30.01,WSW,251,0.0,0.0,98,0.00,,,0.00,Wunderground v.1.15,2013-08-08 07:56:00,
2013-08-08 03:02:00,52.2,51.7,30.01,WSW,251,0.0,0.0,98,0.00,,,0.00,Wunderground v.1.15,2013-08-08 08:02:00,
2013-08-08 03:08:00,52.4,51.9,30.01,WSW,251,0.0,0.0,98,0.00,,,0.00,Wunderground v.1.15,2013-08-08 08:08:00,
2013-08-08 03:14:00,52.4,51.9,30.01,WSW,251,0.0,0.0,98,0.00,,,0.00,Wunderground v.1.15,2013-08-08 08:14:00,
2013-08-08 03:20:00,52.5,52.0,30.01,WSW,251,0.0,0.0,98,0.00,,,0.00,Wunderground v.1.15,2013-08-08 08:20:00,
2013-08-08 03:26:00,52.6,52.1,30.01,WSW,251,0.0,0.0,98,0.00,,,0.00,Wunderground v.1.15,2013-08-08 08:26:00,
2013-08-08 03:32:00,52.7,52.2,30.01,WSW,251,0.0,0.0,98,0.00,,,0.00,Wunderground v.1.15,2013-08-08 08:32:00,
2013-08-08 03:37:00,53.0,52.5,30.01,WSW,251,0.0,0.0,98,0.00,,,0.00,Wunderground v.1.15,2013-08-08 08:37:00,
2013-08-08 03:43:00,53.0,52.5,30.01,WSW,251,0.0,0.0,98,0.00,,,0.00,Wunderground v.1.15,2013-08-08 08:43:00,
2013-08-08 03:49:00,53.0,52.5,30.01,WSW,251,0.0,0.0,98,0.00,,,0.00,Wunderground v.1.15,2013-08-08 08:49:00,
2013-08-08 03:55:00,53.0,52.5,30.01,WSW,251,0.0,0.0,98,0.00,,,0.00,Wunderground v.1.15,2013-08-08 08:55:00,
2013-08-08 04:00:00,52.9,52.4,30.00,WSW,251,0.0,0.0,98,0.00,,,0.00,Wunderground v.1.15,2013-08-08 09:00:00,
2013-08-08 04:06:00,52.8,52.3,30.01,WSW,251,0.0,0.0,98,0.00,,,0.00,Wunderground v.1.15,2013-08-08 09:06:00,
2013-08-08 04:12:00,52.6,52.1,30.01,WSW,251,0.0,0.0,98,0.00,,,0.00,Wunderground v.1.15,2013-08-08 09:12:00,
2013-08-08 04:17:00,52.6,52.1,30.01,WSW,251,0.0,0.0,98,0.00,,,0.00,Wunderground v.1.15,2013-08-08 09:17:00,
2013-08-08 04:22:00,52.5,52.0,30.00,WSW,251,0.0,0.0,98,0.00,,,0.00,Wunderground v.1.15,2013-08-08 09:22:00,
2013-08-08 04:28:00,52.5,52.0,30.00,WSW,251,0.0,0.0,98,0.00,,,0.00,Wunderground v.1.15,2013-08-08 09:28:00,
2013-08-08 04:34:00,52.6,52.1,30.00,WSW,251,0.0,0.0,98,0.00,,,0.00,Wunderground v.1.15,2013-08-08 09:34:00,
2013-08-08 04:39:00,52.6,52.1,30.01,WSW,251,0.0,0.0,98,0.00,,,0.00,Wunderground v.1.15,2013-08-08 09:39:00,
2013-08-08 04:44:00,52.6,52.1,30.01,WSW,251,0.0,0.0,98,0.00,,,0.00,Wunderground v.1.15,2013-08-08 09:44:00,
2013-08-08 04:49:00,52.7,52.2,30.01,WSW,251,0.0,0.0,98,0.00,,,0.00,Wunderground v.1.15,2013-08-08 09:49:00,
2013-08-08 04:55:00,52.9,52.4,30.01,West,262,0.0,0.0,98,0.00,,,0.00,Wunderground v.1.15,2013-08-08 09:55:00,
2013-08-08 05:00:00,53.0,52.5,30.02,West,262,0.0,0.0,98,0.00,,,0.00,Wunderground v.1.15,2013-08-08 10:00:00,
2013-08-08 05:06:00,53.2,52.7,30.01,West,263,0.0,0.0,98,0.00,,,0.00,Wunderground v.1.15,2013-08-08 10:06:00,
2013-08-08 05:11:00,53.4,52.8,30.01,West,277,0.0,0.0,98,0.00,,,0.00,Wunderground v.1.15,2013-08-08 10:11:00,
2013-08-08 05:17:00,53.8,53.5,30.01,West,266,0.0,0.0,99,0.00,,,0.00,Wunderground v.1.15,2013-08-08 10:17:00,
2013-08-08 05:22:00,53.8,53.2,30.01,West,266,0.0,0.0,98,0.00,,,0.00,Wunderground v.1.15,2013-08-08 10:22:00,
2013-08-08 05:27:00,54.1,53.5,30.01,WNW,291,0.0,0.0,98,0.00,,,0.00,Wunderground v.1.15,2013-08-08 10:27:00,
2013-08-08 05:33:00,54.1,53.5,30.01,West,279,0.0,0.0,98,0.00,,,0.00,Wunderground v.1.15,2013-08-08 10:33:00,
2013-08-08 05:38:00,54.3,53.7,30.01,WNW,298,0.0,0.0,98,0.00,,,0.00,Wunderground v.1.15,2013-08-08 10:38:00,
2013-08-08 05:44:00,54.6,54.0,30.01,WNW,297,0.0,0.0,98,0.00,,,0.00,Wunderground v.1.15,2013-08-08 10:44:00,
2013-08-08 05:50:00,54.9,54.3,30.01,WNW,299,0.0,0.0,98,0.00,,,0.00,Wunderground v.1.15,2013-08-08 10:50:00,
2013-08-08 05:56:00,54.8,54.2,30.01,WNW,300,0.0,0.0,98,0.00,,,0.00,Wunderground v.1.15,2013-08-08 10:56:00,
2013-08-08 06:02:00,55.0,54.4,30.01,WNW,296,0.0,0.0,98,0.00,,,0.00,Wunderground v.1.15,2013-08-08 11:02:00,
2013-08-08 06:07:00,55.2,54.4,30.01,WNW,294,0.0,0.0,97,0.00,,,0.00,Wunderground v.1.15,2013-08-08 11:07:00,
2013-08-08 06:13:00,55.5,54.7,30.01,West,279,0.0,0.0,97,0.00,,,0.00,Wunderground v.1.15,2013-08-08 11:13:00,
2013-08-08 06:19:00,55.6,54.5,30.01,WNW,294,0.0,2.0,96,0.00,,,0.00,Wunderground v.1.15,2013-08-08 11:19:00,
2013-08-08 06:25:00,55.7,54.6,30.01,NW,315,0.0,1.0,96,0.00,,,0.00,Wunderground v.1.15,2013-08-08 11:25:00,
2013-08-08 06:30:00,55.9,54.8,30.01,West,267,0.0,0.0,96,0.00,,,0.00,Wunderground v.1.15,2013-08-08 11:30:00,
2013-08-08 06:36:00,56.1,54.7,30.01,NNW,346,1.0,2.0,95,0.00,,,0.00,Wunderground v.1.15,2013-08-08 11:36:00,
2013-08-08 06:41:00,56.3,54.9,30.01,West,272,0.0,1.0,95,0.00,,,0.00,Wunderground v.1.15,2013-08-08 11:41:00,
2013-08-08 06:47:00,56.3,54.6,30.01,West,259,0.0,1.0,94,0.00,,,0.00,Wunderground v.1.15,2013-08-08 11:47:00,
2013-08-08 06:53:00,56.3,54.6,30.02,WNW,298,0.0,1.0,94,0.00,,,0.00,Wunderground v.1.15,2013-08-08 11:53:00,
2013-08-08 06:58:00,56.3,54.3,30.02,West,279,0.0,1.0,93,0.00,,,0.00,Wunderground v.1.15,2013-08-08 11:58:00,
2013-08-08 07:04:00,56.4,54.4,30.02,West,272,0.0,3.0,93,0.00,,,0.00,Wunderground v.1.15,2013-08-08 12:04:00,
2013-08-08 07:10:00,56.5,54.5,30.02,WSW,244,0.0,1.0,93,0.00,,,0.00,Wunderground v.1.15,2013-08-08 12:10:00,
2013-08-08 07:16:00,56.6,54.3,30.02,WNW,292,0.0,1.0,92,0.00,,,0.00,Wunderground v.1.15,2013-08-08 12:16:00,
2013-08-08 07:21:00,56.7,54.4,30.02,West,269,1.0,1.0,92,0.00,,,0.00,Wunderground v.1.15,2013-08-08 12:21:00,
2013-08-08 07:27:00,56.8,54.2,30.03,West,277,1.0,1.0,91,0.00,,,0.00,Wunderground v.1.15,2013-08-08 12:27:00,
2013-08-08 07:33:00,57.0,54.1,30.03,WNW,293,1.0,2.0,90,0.00,,,0.00,Wunderground v.1.15,2013-08-08 12:33:00,
2013-08-08 07:38:00,57.2,54.3,30.03,West,280,1.0,2.0,90,0.00,,,0.00,Wunderground v.1.15,2013-08-08 12:38:00,
2013-08-08 07:44:00,57.4,54.5,30.03,West,265,1.0,2.0,90,0.00,,,0.00,Wunderground v.1.15,2013-08-08 12:44:00,
2013-08-08 07:50:00,57.6,54.7,30.03,West,259,0.0,1.0,90,0.00,,,0.00,Wunderground v.1.15,2013-08-08 12:50:00,
2013-08-08 07:56:00,57.7,54.8,30.03,NNW,332,0.0,1.0,90,0.00,,,0.00,Wunderground v.1.15,2013-08-08 12:56:00,
2013-08-08 08:01:00,57.8,54.9,30.03,WNW,287,0.0,2.0,90,0.00,,,0.00,Wunderground v.1.15,2013-08-08 13:01:00,
2013-08-08 08:07:00,57.9,55.0,30.03,West,269,1.0,2.0,90,0.00,,,0.00,Wunderground v.1.15,2013-08-08 13:07:00,
2013-08-08 08:13:00,58.0,55.1,30.03,SW,223,0.0,2.0,90,0.00,,,0.00,Wunderground v.1.15,2013-08-08 13:13:00,
2013-08-08 08:19:00,58.2,55.0,30.04,North,352,0.0,3.0,89,0.00,,,0.00,Wunderground v.1.15,2013-08-08 13:19:00,
2013-08-08 08:25:00,58.3,55.1,30.04,WNW,300,0.0,2.0,89,0.00,,,0.00,Wunderground v.1.15,2013-08-08 13:25:00,
2013-08-08 08:31:00,58.5,55.3,30.04,WNW,285,0.0,2.0,89,0.00,,,0.00,Wunderground v.1.15,2013-08-08 13:31:00,
2013-08-08 08:37:00,58.7,55.5,30.04,WNW,289,0.0,2.0,89,0.00,,,0.00,Wunderground v.1.15,2013-08-08 13:37:00,
2013-08-08 08:42:00,58.8,55.6,30.04,WNW,298,0.0,2.0,89,0.00,,,0.00,Wunderground v.1.15,2013-08-08 13:42:00,
2013-08-08 08:48:00,59.1,55.2,30.04,NW,322,0.0,2.0,87,0.00,,,0.00,Wunderground v.1.15,2013-08-08 13:48:00,
2013-08-08 08:54:00,59.4,55.2,30.04,WNW,303,0.0,2.0,86,0.00,,,0.00,Wunderground v.1.15,2013-08-08 13:54:00,
2013-08-08 09:00:00,59.5,55.6,30.04,West,277,0.0,0.0,87,0.00,,,0.00,Wunderground v.1.15,2013-08-08 14:00:00,
2013-08-08 09:06:00,59.6,55.4,30.04,West,267,0.0,1.0,86,0.00,,,0.00,Wunderground v.1.15,2013-08-08 14:06:00,
2013-08-08 09:11:00,59.8,55.6,30.04,WNW,285,0.0,1.0,86,0.00,,,0.00,Wunderground v.1.15,2013-08-08 14:11:00,
2013-08-08 09:17:00,60.0,55.8,30.04,NNE,23,0.0,1.0,86,0.00,,,0.00,Wunderground v.1.15,2013-08-08 14:17:00,
2013-08-08 09:23:00,60.3,56.1,30.04,WSW,258,0.0,0.0,86,0.00,,,0.00,Wunderground v.1.15,2013-08-08 14:23:00,
2013-08-08 09:28:00,60.4,56.2,30.03,WSW,256,0.0,1.0,86,0.00,,,0.00,Wunderground v.1.15,2013-08-08 14:28:00,
2013-08-08 09:34:00,60.6,56.1,30.04,West,263,0.0,2.0,85,0.00,,,0.00,Wunderground v.1.15,2013-08-08 14:34:00,
2013-08-08 09:40:00,60.9,56.4,30.03,WNW,301,0.0,1.0,85,0.00,,,0.00,Wunderground v.1.15,2013-08-08 14:40:00,
2013-08-08 09:45:00,60.8,55.9,30.04,West,267,1.0,3.0,84,0.00,,,0.00,Wunderground v.1.15,2013-08-08 14:45:00,
2013-08-08 09:50:00,61.0,56.5,30.04,NW,306,1.0,1.0,85,0.00,,,0.00,Wunderground v.1.15,2013-08-08 14:50:00,
2013-08-08 09:56:00,61.4,55.9,30.04,WNW,289,1.0,2.0,82,0.00,,,0.00,Wunderground v.1.15,2013-08-08 14:56:00,
2013-08-08 10:02:00,61.2,56.0,30.04,NNW,330,1.0,4.0,83,0.00,,,0.00,Wunderground v.1.15,2013-08-08 15:02:00,
2013-08-08 10:08:00,61.0,55.8,30.04,WNW,297,1.0,4.0,83,0.00,,,0.00,Wunderground v.1.15,2013-08-08 15:08:00,
2013-08-08 10:13:00,61.1,56.2,30.04,West,269,0.0,1.0,84,0.00,,,0.00,Wunderground v.1.15,2013-08-08 15:13:00,
2013-08-08 10:19:00,61.1,55.6,30.04,West,280,0.0,1.0,82,0.00,,,0.00,Wunderground v.1.15,2013-08-08 15:19:00,
2013-08-08 10:25:00,61.0,55.5,30.05,West,268,0.0,1.0,82,0.00,,,0.00,Wunderground v.1.15,2013-08-08 15:25:00,
2013-08-08 10:31:00,60.9,55.7,30.05,West,268,0.0,1.0,83,0.00,,,0.00,Wunderground v.1.15,2013-08-08 15:31:00,
2013-08-08 10:37:00,60.9,56.0,30.04,West,268,0.0,1.0,84,0.00,,,0.00,Wunderground v.1.15,2013-08-08 15:37:00,
2013-08-08 10:42:00,60.9,56.0,30.04,West,269,0.0,1.0,84,0.00,,,0.00,Wunderground v.1.15,2013-08-08 15:42:00,
2013-08-08 10:48:00,61.0,56.8,30.04,West,268,0.0,1.0,86,0.00,,,0.00,Wunderground v.1.15,2013-08-08 15:48:00,
2013-08-08 10:54:00,61.1,57.2,30.04,West,269,0.0,1.0,87,0.00,,,0.00,Wunderground v.1.15,2013-08-08 15:54:00,
2013-08-08 10:59:00,60.9,57.0,30.05,West,268,0.0,1.0,87,0.00,,,0.00,Wunderground v.1.15,2013-08-08 15:59:00,
2013-08-08 11:05:00,60.6,56.4,30.05,West,268,0.0,0.0,86,0.00,,,0.00,Wunderground v.1.15,2013-08-08 16:05:00,
2013-08-08 11:11:00,60.6,57.0,30.05,West,269,0.0,0.0,88,0.00,,,0.00,Wunderground v.1.15,2013-08-08 16:11:00,
2013-08-08 11:17:00,60.7,56.8,30.05,West,268,0.0,0.0,87,0.00,,,0.00,Wunderground v.1.15,2013-08-08 16:17:00,
2013-08-08 11:22:00,60.9,57.0,30.04,West,269,0.0,0.0,87,0.00,,,0.00,Wunderground v.1.15,2013-08-08 16:22:00,
2013-08-08 11:28:00,61.1,56.9,30.04,West,269,0.0,0.0,86,0.00,,,0.00,Wunderground v.1.15,2013-08-08 16:28:00,
2013-08-08 11:34:00,61.3,56.8,30.04,West,268,0.0,0.0,85,0.00,,,0.00,Wunderground v.1.15,2013-08-08 16:34:00,
2013-08-08 11:40:00,61.4,56.5,30.04,West,268,0.0,0.0,84,0.00,,,0.00,Wunderground v.1.15,2013-08-08 16:40:00,
2013-08-08 11:46:00,61.3,57.1,30.04,West,268,0.0,0.0,86,0.00,,,0.00,Wunderground v.1.15,2013-08-08 16:46:00,
2013-08-08 11:51:00,61.1,56.9,30.04,West,268,0.0,0.0,86,0.00,,,0.01,Wunderground v.1.15,2013-08-08 16:51:00,
2013-08-08 11:57:00,60.8,57.5,30.05,West,268,0.0,0.0,89,0.09,,,0.01,Wunderground v.1.15,2013-08-08 16:57:00,
2013-08-08 12:03:00,60.6,57.3,30.05,West,268,0.0,0.0,89,0.13,,,0.03,Wunderground v.1.15,2013-08-08 17:03:00,
2013-08-08 12:09:00,60.4,57.8,30.05,West,268,0.0,0.0,91,0.38,,,0.05,Wunderground v.1.15,2013-08-08 17:09:00,
2013-08-08 12:14:00,60.5,57.9,30.04,West,268,0.0,0.0,91,0.10,,,0.06,Wunderground v.1.15,2013-08-08 17:14:00,
2013-08-08 12:20:00,60.6,58.0,30.04,West,268,0.0,0.0,91,0.09,,,0.06,Wunderground v.1.15,2013-08-08 17:20:00,
2013-08-08 12:26:00,60.9,58.3,30.04,West,268,0.0,0.0,91,0.05,,,0.06,Wunderground v.1.15,2013-08-08 17:26:00,
2013-08-08 12:31:00,61.2,58.9,30.04,West,268,0.0,0.0,92,0.00,,,0.06,Wunderground v.1.15,2013-08-08 17:31:00,
2013-08-08 12:37:00,61.5,58.8,30.04,West,268,0.0,0.0,91,0.00,,,0.06,Wunderground v.1.15,2013-08-08 17:37:00,
2013-08-08 12:43:00,61.7,58.7,30.04,West,268,0.0,0.0,90,0.00,,,0.06,Wunderground v.1.15,2013-08-08 17:43:00,
2013-08-08 12:49:00,62.4,59.7,30.03,West,268,0.0,0.0,91,0.00,,,0.06,Wunderground v.1.15,2013-08-08 17:49:00,
2013-08-08 12:55:00,63.0,59.7,30.03,SW,227,0.0,0.0,89,0.00,,,0.06,Wunderground v.1.15,2013-08-08 17:55:00,
2013-08-08 13:00:00,63.8,59.9,30.03,SSW,202,0.0,1.0,87,0.00,,,0.06,Wunderground v.1.15,2013-08-08 18:00:00,
2013-08-08 13:06:00,64.6,59.7,30.03,SSW,201,0.0,1.0,84,0.00,,,0.06,Wunderground v.1.15,2013-08-08 18:06:00,
2013-08-08 13:12:00,65.6,61.0,30.02,SSW,209,0.0,0.0,85,0.00,,,0.06,Wunderground v.1.15,2013-08-08 18:12:00,
2013-08-08 13:18:00,66.1,61.1,30.02,SW,235,0.0,2.0,84,0.00,,,0.06,Wunderground v.1.15,2013-08-08 18:18:00,
2013-08-08 13:23:00,66.5,60.8,30.02,WSW,241,0.0,0.0,82,0.00,,,0.06,Wunderground v.1.15,2013-08-08 18:23:00,
2013-08-08 13:29:00,67.4,62.4,30.02,SW,218,0.0,1.0,84,0.00,,,0.06,Wunderground v.1.15,2013-08-08 18:29:00,
2013-08-08 13:35:00,68.6,63.2,30.02,SSW,208,0.0,0.0,83,0.00,,,0.06,Wunderground v.1.15,2013-08-08 18:35:00,
2013-08-08 13:41:00,69.3,62.9,30.02,SSW,206,0.0,0.0,80,0.00,,,0.06,Wunderground v.1.15,2013-08-08 18:41:00,
2013-08-08 13:46:00,69.5,62.7,30.02,SSW,209,0.0,1.0,79,0.00,,,0.06,Wunderground v.1.15,2013-08-08 18:46:00,
2013-08-08 13:52:00,70.1,63.3,30.01,West,265,0.0,0.0,79,0.00,,,0.06,Wunderground v.1.15,2013-08-08 18:52:00,
2013-08-08 13:58:00,70.6,63.8,30.02,SSW,210,0.0,1.0,79,0.00,,,0.06,Wunderground v.1.15,2013-08-08 18:58:00,
2013-08-08 14:04:00,71.4,62.3,30.02,SW,231,0.0,3.0,73,0.00,,,0.06,Wunderground v.1.15,2013-08-08 19:04:00,
2013-08-08 14:10:00,71.8,63.1,30.02,SSW,212,0.0,2.0,74,0.00,,,0.06,Wunderground v.1.15,2013-08-08 19:10:00,
2013-08-08 14:16:00,72.0,63.6,30.01,SSW,213,0.0,2.0,75,0.00,,,0.06,Wunderground v.1.15,2013-08-08 19:16:00,
2013-08-08 14:21:00,72.6,64.2,30.01,SSW,211,0.0,4.0,75,0.00,,,0.06,Wunderground v.1.15,2013-08-08 19:21:00,
2013-08-08 14:27:00,73.0,62.6,30.01,SW,222,1.0,4.0,70,0.00,,,0.06,Wunderground v.1.15,2013-08-08 19:27:00,
2013-08-08 14:33:00,73.3,63.3,30.01,SSW,212,1.0,1.0,71,0.00,,,0.06,Wunderground v.1.15,2013-08-08 19:33:00,
2013-08-08 14:39:00,73.7,63.3,30.01,SSW,202,1.0,1.0,70,0.00,,,0.06,Wunderground v.1.15,2013-08-08 19:39:00,
2013-08-08 14:44:00,74.1,64.5,30.01,WSW,239,0.0,1.0,72,0.00,,,0.06,Wunderground v.1.15,2013-08-08 19:44:00,
2013-08-08 14:50:00,74.4,63.1,30.00,SW,227,0.0,1.0,68,0.00,,,0.06,Wunderground v.1.15,2013-08-08 19:50:00,
2013-08-08 14:56:00,74.8,62.7,30.00,SSW,209,1.0,3.0,66,0.00,,,0.06,Wunderground v.1.15,2013-08-08 19:56:00,
2013-08-08 15:02:00,74.9,61.9,30.00,WSW,249,1.0,3.0,64,0.00,,,0.06,Wunderground v.1.15,2013-08-08 20:02:00,
2013-08-08 15:08:00,75.1,60.3,30.00,WSW,249,1.0,3.0,60,0.00,,,0.06,Wunderground v.1.15,2013-08-08 20:08:00,
2013-08-08 15:13:00,75.2,62.6,29.99,SSW,208,1.0,4.0,65,0.00,,,0.06,Wunderground v.1.15,2013-08-08 20:13:00,
2013-08-08 15:19:00,75.5,62.5,29.99,SW,216,1.0,4.0,64,0.00,,,0.06,Wunderground v.1.15,2013-08-08 20:19:00,
2013-08-08 15:25:00,75.5,62.0,29.99,SE,125,1.0,3.0,63,0.00,,,0.06,Wunderground v.1.15,2013-08-08 20:25:00,
2013-08-08 15:31:00,75.2,60.8,29.99,SW,234,1.0,3.0,61,0.00,,,0.06,Wunderground v.1.15,2013-08-08 20:31:00,
2013-08-08 15:36:00,75.7,60.8,29.99,SW,226,0.0,3.0,60,0.00,,,0.06,Wunderground v.1.15,2013-08-08 20:36:00,
2013-08-08 15:42:00,76.1,61.7,29.99,SSW,194,1.0,3.0,61,0.00,,,0.06,Wunderground v.1.15,2013-08-08 20:42:00,
2013-08-08 15:48:00,76.3,59.9,29.99,SSW,211,1.0,3.0,57,0.00,,,0.06,Wunderground v.1.15,2013-08-08 20:48:00,
2013-08-08 15:54:00,76.2,61.3,29.99,SSW,212,1.0,3.0,60,0.00,,,0.06,Wunderground v.1.15,2013-08-08 20:54:00,
2013-08-08 16:00:00,76.1,61.2,29.99,SW,219,0.0,1.0,60,0.00,,,0.06,Wunderground v.1.15,2013-08-08 21:00:00,
2013-08-08 16:06:00,75.6,60.7,29.98,SW,223,0.0,1.0,60,0.00,,,0.06,Wunderground v.1.15,2013-08-08 21:06:00,
2013-08-08 16:12:00,74.6,61.2,29.98,WSW,245,0.0,1.0,63,0.00,,,0.06,Wunderground v.1.15,2013-08-08 21:12:00,
2013-08-08 16:17:00,73.9,61.8,29.98,WSW,245,0.0,1.0,66,0.00,,,0.06,Wunderground v.1.15,2013-08-08 21:17:00,
2013-08-08 16:23:00,73.2,60.3,29.98,SW,234,0.0,1.0,64,0.00,,,0.06,Wunderground v.1.15,2013-08-08 21:23:00,
2013-08-08 16:30:00,72.6,61.8,29.98,SW,234,0.0,1.0,69,0.00,,,0.06,Wunderground v.1.15,2013-08-08 21:30:00,
2013-08-08 16:36:00,72.4,62.1,29.98,SW,234,0.0,1.0,70,0.00,,,0.06,Wunderground v.1.15,2013-08-08 21:36:00,
2013-08-08 16:42:00,73.0,63.0,29.97,SW,233,0.0,1.0,71,0.00,,,0.06,Wunderground v.1.15,2013-08-08 21:42:00,
2013-08-08 16:49:00,74.2,63.0,29.97,SW,224,0.0,2.0,68,0.00,,,0.06,Wunderground v.1.15,2013-08-08 21:49:00,
2013-08-08 16:55:00,75.0,62.9,29.97,South,181,0.0,1.0,66,0.00,,,0.06,Wunderground v.1.15,2013-08-08 21:55:00,
2013-08-08 17:00:00,75.2,62.6,29.97,SSW,205,1.0,1.0,65,0.00,,,0.06,Wunderground v.1.15,2013-08-08 22:00:00,
2013-08-08 17:06:00,75.4,63.2,29.97,WSW,244,0.0,1.0,66,0.00,,,0.06,Wunderground v.1.15,2013-08-08 22:06:00,
2013-08-08 17:11:00,75.1,61.6,29.97,SSW,212,0.0,1.0,63,0.00,,,0.06,Wunderground v.1.15,2013-08-08 22:11:00,
2013-08-08 17:16:00,74.6,60.3,29.97,SSW,203,1.0,4.0,61,0.00,,,0.06,Wunderground v.1.15,2013-08-08 22:16:00,
2013-08-08 17:22:00,73.7,59.9,29.97,SSW,208,1.0,1.0,62,0.00,,,0.06,Wunderground v.1.15,2013-08-08 22:22:00,
2013-08-08 17:28:00,73.2,60.3,29.97,SSW,211,0.0,1.0,64,0.00,,,0.06,Wunderground v.1.15,2013-08-08 22:28:00,
2013-08-08 17:33:00,73.5,61.4,29.97,SSW,192,0.0,0.0,66,0.00,,,0.06,Wunderground v.1.15,2013-08-08 22:33:00,
2013-08-08 17:38:00,73.7,61.6,29.97,SSW,208,0.0,1.0,66,0.00,,,0.06,Wunderground v.1.15,2013-08-08 22:38:00,
2013-08-08 17:44:00,73.5,61.0,29.97,SSW,205,0.0,1.0,65,0.00,,,0.06,Wunderground v.1.15,2013-08-08 22:44:00,
2013-08-08 17:49:00,73.2,62.4,29.97,SSW,205,0.0,1.0,69,0.00,,,0.06,Wunderground v.1.15,2013-08-08 22:49:00,
2013-08-08 17:55:00,72.6,62.3,29.97,SSW,204,0.0,0.0,70,0.00,,,0.06,Wunderground v.1.15,2013-08-08 22:55:00,
2013-08-08 18:03:00,72.9,63.7,29.97,SSW,205,0.0,0.0,73,0.00,,,0.06,Wunderground v.1.15,2013-08-08 23:03:00,
2013-08-08 18:09:00,73.1,62.3,29.97,SW,218,0.0,0.0,69,0.00,,,0.06,Wunderground v.1.15,2013-08-08 23:09:00,
2013-08-08 18:14:00,72.9,62.9,29.98,SW,218,0.0,0.0,71,0.00,,,0.06,Wunderground v.1.15,2013-08-08 23:14:00,
2013-08-08 18:20:00,71.8,62.7,29.98,SW,218,0.0,0.0,73,0.00,,,0.06,Wunderground v.1.15,2013-08-08 23:20:00,
2013-08-08 18:25:00,70.7,60.4,29.98,West,262,0.0,1.0,70,0.00,,,0.06,Wunderground v.1.15,2013-08-08 23:25:00,
2013-08-08 18:30:00,70.1,59.9,29.98,West,262,0.0,0.0,70,0.00,,,0.06,Wunderground v.1.15,2013-08-08 23:30:00,
2013-08-08 18:36:00,69.8,58.3,29.98,SW,220,0.0,0.0,67,0.00,,,0.06,Wunderground v.1.15,2013-08-08 23:36:00,
2013-08-08 18:42:00,69.7,58.7,29.98,SW,220,0.0,0.0,68,0.00,,,0.06,Wunderground v.1.15,2013-08-08 23:42:00,
2013-08-08 18:48:00,69.5,60.5,29.98,SW,220,0.0,0.0,73,0.00,,,0.06,Wunderground v.1.15,2013-08-08 23:48:00,
2013-08-08 18:53:00,69.4,60.8,29.97,SW,235,0.0,0.0,74,0.00,,,0.06,Wunderground v.1.15,2013-08-08 23:53:00,
2013-08-08 18:59:00,69.2,56.9,29.97,WSW,257,0.0,0.0,65,0.00,,,0.06,Wunderground v.1.15,2013-08-08 23:59:00,
2013-08-08 19:04:00,69.2,57.8,29.97,WSW,257,0.0,0.0,67,0.00,,,0.06,Wunderground v.1.15,2013-08-09 00:04:00,
2013-08-08 19:10:00,69.1,56.8,29.97,WNW,288,0.0,0.0,65,0.00,,,0.06,Wunderground v.1.15,2013-08-09 00:10:00,
2013-08-08 19:17:00,68.9,56.6,29.97,WSW,239,0.0,1.0,65,0.00,,,0.06,Wunderground v.1.15,2013-08-09 00:17:00,
2013-08-08 19:22:00,68.8,55.7,29.97,WNW,286,0.0,0.0,63,0.00,,,0.06,Wunderground v.1.15,2013-08-09 00:22:00,
2013-08-08 19:28:00,68.5,57.1,29.97,West,271,0.0,0.0,67,0.00,,,0.06,Wunderground v.1.15,2013-08-09 00:28:00,
2013-08-08 19:33:00,68.0,58.2,29.97,West,270,0.0,0.0,71,0.00,,,0.06,Wunderground v.1.15,2013-08-09 00:33:00,
2013-08-08 19:38:00,67.4,57.7,29.97,West,271,0.0,0.0,71,0.00,,,0.06,Wunderground v.1.15,2013-08-09 00:38:00,
2013-08-08 19:44:00,66.4,57.5,29.98,West,271,0.0,0.0,73,0.00,,,0.06,Wunderground v.1.15,2013-08-09 00:44:00,
2013-08-08 19:50:00,65.8,58.0,29.98,West,271,0.0,0.0,76,0.00,,,0.06,Wunderground v.1.15,2013-08-09 00:50:00,
2013-08-08 19:56:00,65.3,57.9,29.97,West,270,0.0,0.0,77,0.00,,,0.06,Wunderground v.1.15,2013-08-09 00:56:00,
2013-08-08 20:02:00,64.9,58.2,29.97,West,271,0.0,0.0,79,0.00,,,0.06,Wunderground v.1.15,2013-08-09 01:02:00,
2013-08-08 20:07:00,64.6,57.6,29.97,West,271,0.0,0.0,78,0.00,,,0.06,Wunderground v.1.15,2013-08-09 01:07:00,
2013-08-08 20:13:00,64.2,58.2,29.98,West,263,0.0,0.0,81,0.00,,,0.06,Wunderground v.1.15,2013-08-09 01:13:00,
2013-08-08 20:18:00,63.7,57.4,29.98,West,263,0.0,0.0,80,0.00,,,0.06,Wunderground v.1.15,2013-08-09 01:18:00,
2013-08-08 20:23:00,63.0,57.1,29.98,West,265,0.0,0.0,81,0.00,,,0.06,Wunderground v.1.15,2013-08-09 01:23:00,
2013-08-08 20:29:00,62.2,57.0,29.98,West,263,0.0,0.0,83,0.00,,,0.06,Wunderground v.1.15,2013-08-09 01:29:00,
2013-08-08 20:35:00,61.4,56.5,29.98,West,263,0.0,0.0,84,0.00,,,0.06,Wunderground v.1.15,2013-08-09 01:35:00,
2013-08-08 20:41:00,60.7,56.2,29.98,West,263,0.0,0.0,85,0.00,,,0.06,Wunderground v.1.15,2013-08-09 01:41:00,
2013-08-08 20:46:00,60.1,55.6,29.98,West,263,0.0,0.0,85,0.00,,,0.06,Wunderground v.1.15,2013-08-09 01:46:00,
2013-08-08 20:54:00,59.3,55.4,29.98,West,263,0.0,0.0,87,0.00,,,0.06,Wunderground v.1.15,2013-08-09 01:54:00,
2013-08-08 20:59:00,58.7,55.2,29.98,West,263,0.0,0.0,88,0.00,,,0.06,Wunderground v.1.15,2013-08-09 01:59:00,
2013-08-08 21:04:00,58.2,55.0,29.98,West,263,0.0,0.0,89,0.00,,,0.06,Wunderground v.1.15,2013-08-09 02:04:00,
2013-08-08 21:10:00,57.7,54.8,29.99,West,265,0.0,0.0,90,0.00,,,0.06,Wunderground v.1.15,2013-08-09 02:10:00,
2013-08-08 21:15:00,57.4,54.8,29.99,West,265,0.0,0.0,91,0.00,,,0.06,Wunderground v.1.15,2013-08-09 02:15:00,
2013-08-08 21:21:00,56.9,54.3,29.99,West,265,0.0,0.0,91,0.00,,,0.06,Wunderground v.1.15,2013-08-09 02:21:00,
2013-08-08 21:27:00,56.6,54.3,29.99,West,263,0.0,0.0,92,0.00,,,0.06,Wunderground v.1.15,2013-08-09 02:27:00,
2013-08-08 21:32:00,56.3,54.0,29.99,West,263,0.0,0.0,92,0.00,,,0.06,Wunderground v.1.15,2013-08-09 02:32:00,
2013-08-08 21:38:00,56.1,54.1,29.99,West,263,0.0,0.0,93,0.00,,,0.06,Wunderground v.1.15,2013-08-09 02:38:00,
2013-08-08 21:44:00,55.9,54.2,30.00,West,264,0.0,0.0,94,0.00,,,0.06,Wunderground v.1.15,2013-08-09 02:44:00,
2013-08-08 21:51:00,55.8,54.1,30.00,West,263,0.0,0.0,94,0.00,,,0.06,Wunderground v.1.15,2013-08-09 02:51:00,
2013-08-08 21:56:00,55.6,53.9,30.00,West,263,0.0,0.0,94,0.00,,,0.06,Wunderground v.1.15,2013-08-09 02:56:00,
2013-08-08 22:02:00,55.5,54.1,30.00,West,263,0.0,0.0,95,0.00,,,0.06,Wunderground v.1.15,2013-08-09 03:02:00,
2013-08-08 22:07:00,55.4,54.0,30.00,West,265,0.0,0.0,95,0.00,,,0.06,Wunderground v.1.15,2013-08-09 03:07:00,
2013-08-08 22:14:00,55.3,53.9,30.00,West,265,0.0,0.0,95,0.00,,,0.06,Wunderground v.1.15,2013-08-09 03:14:00,
2013-08-08 22:21:00,55.1,53.7,30.00,West,265,0.0,0.0,95,0.00,,,0.06,Wunderground v.1.15,2013-08-09 03:21:00,
2013-08-08 22:27:00,55.0,53.9,30.00,West,265,0.0,0.0,96,0.00,,,0.06,Wunderground v.1.15,2013-08-09 03:27:00,
2013-08-08 22:33:00,54.9,53.5,29.99,West,265,0.0,0.0,95,0.00,,,0.06,Wunderground v.1.15,2013-08-09 03:33:00,
2013-08-08 22:39:00,54.7,53.6,30.00,West,265,0.0,0.0,96,0.00,,,0.06,Wunderground v.1.15,2013-08-09 03:39:00,
2013-08-08 22:46:00,54.5,53.4,29.99,West,265,0.0,0.0,96,0.00,,,0.06,Wunderground v.1.15,2013-08-09 03:46:00,
2013-08-08 22:51:00,54.3,52.9,29.99,West,265,0.0,0.0,95,0.00,,,0.06,Wunderground v.1.15,2013-08-09 03:51:00,
2013-08-08 22:59:00,53.9,52.8,29.99,West,265,0.0,0.0,96,0.00,,,0.06,Wunderground v.1.15,2013-08-09 03:59:00,
2013-08-08 23:01:00,53.9,52.8,29.99,West,265,0.0,0.0,96,0.00,,,0.06,Wunderground v.1.15,2013-08-09 04:01:00,
2013-08-08 23:03:00,53.8,52.7,29.99,West,265,0.0,0.0,96,0.00,,,0.06,Wunderground v.1.15,2013-08-09 04:03:00,
2013-08-08 23:04:00,53.8,52.7,29.99,West,265,0.0,0.0,96,0.00,,,0.06,Wunderground v.1.15,2013-08-09 04:04:00,
2013-08-08 23:10:00,53.6,52.5,29.99,West,265,0.0,0.0,96,0.00,,,0.06,Wunderground v.1.15,2013-08-09 04:10:00,
2013-08-08 23:11:00,53.6,52.5,29.99,West,265,0.0,0.0,96,0.00,,,0.06,Wunderground v.1.15,2013-08-09 04:11:00,
2013-08-08 23:15:00,53.5,52.4,29.99,West,265,0.0,0.0,96,0.00,,,0.06,Wunderground v.1.15,2013-08-09 04:15:00,
2013-08-08 23:21:00,53.4,52.3,30.00,West,265,0.0,0.0,96,0.00,,,0.06,Wunderground v.1.15,2013-08-09 04:21:00,
2013-08-08 23:26:00,53.4,52.6,30.00,West,265,0.0,0.0,97,0.00,,,0.06,Wunderground v.1.15,2013-08-09 04:26:00,
2013-08-08 23:32:00,53.3,52.5,30.00,West,265,0.0,0.0,97,0.00,,,0.06,Wunderground v.1.15,2013-08-09 04:32:00,
2013-08-08 23:38:00,53.4,52.6,30.00,West,265,0.0,0.0,97,0.00,,,0.06,Wunderground v.1.15,2013-08-09 04:38:00,
2013-08-08 23:44:00,53.3,52.5,30.00,West,265,0.0,0.0,97,0.00,,,0.06,Wunderground v.1.15,2013-08-09 04:44:00,
2013-08-08 23:49:00,53.3,52.5,30.00,West,265,0.0,0.0,97,0.00,,,0.06,Wunderground v.1.15,2013-08-09 04:49:00,
2013-08-08 23:55:00,53.2,52.4,30.00,West,265,0.0,0.0,97,0.00,,,0.06,Wunderground v.1.15,2013-08-09 04:55:00,